FW6665 Weather Reports


time (UTC)temp
C
wind
direction
speed
KPH
gust
KPH
rain 1hr
cm
rain 24hr
cm
rain mn
cm
humidity
%
barometer
mb
20260905145204 23 200 1.6 9.7 0.00 0.00 0.00 44 1021.8
20260905143704 22 243 3.2 14.5 0.00 0.00 0.00 45 1021.8
20260905143204 22 261 3.2 14.5 0.00 0.00 0.00 46 1021.9
20260905142704 22 247 6.4 11.3 0.00 0.00 0.00 46 1021.8
20260905142204 22 217 4.8 9.7 0.00 0.00 0.00 46 1021.7
20260905141704 22 228 4.8 11.3 0.00 0.00 0.00 46 1021.7
20260905140704 22 172 1.6 11.3 0.00 0.00 0.00 47 1021.7
20260905140203 22 243 3.2 11.3 0.00 0.00 0.00 48 1021.7
20260905135706 22 243 3.2 11.3 0.00 0.00 0.00 47 1021.6
20260905135204 22 226 6.4 9.7 0.00 0.00 0.00 47 1021.6
20260905133704 22 159 1.6 6.4 0.00 0.00 0.00 46 1021.6
20260905132704 21 248 3.2 6.4 0.00 0.00 0.00 50 1021.6
20260905132204 21 245 1.6 11.3 0.00 0.00 0.00 50 1021.6
20260905131704 21 244 1.6 11.3 0.00 0.00 0.00 50 1021.7
20260905131205 21 243 1.6 11.3 0.00 0.00 0.00 49 1021.7
20260905130704 21 233 3.2 11.3 0.00 0.00 0.00 49 1021.7
20260905130204 21 248 4.8 8.0 0.00 0.00 0.00 49 1021.7
20260905125704 21 252 4.8 14.5 0.00 0.00 0.00 51 1021.6
20260905125204 21 247 1.6 16.1 0.00 0.00 0.00 51 1021.5
20260905124704 21 247 3.2 16.1 0.00 0.00 0.00 50 1021.6
20260905124206 21 258 3.2 16.1 0.00 0.00 0.00 49 1021.6
20260905123704 21 257 3.2 11.3 0.00 0.00 0.00 50 1021.5
20260905123204 21 250 3.2 9.7 0.00 0.00 0.00 51 1021.5
20260905122215 21 235 3.2 11.3 0.00 0.00 0.00 52 1021.4
20260905121704 21 220 3.2 11.3 0.00 0.00 0.00 52 1021.5
20260905121204 20 240 6.4 14.5 0.00 0.00 0.00 52 1021.6
20260905120705 20 240 6.4 14.5 0.00 0.00 0.00 54 1021.5
20260905114704 20 230 3.2 11.3 0.00 0.00 0.00 55 1021.6
20260905114204 20 237 1.6 14.5 0.00 0.00 0.00 56 1021.6
20260905113705 20 237 4.8 14.5 0.00 0.00 0.00 55 1021.6
20260905112704 20 252 6.4 16.1 0.00 0.00 0.00 54 1021.6
20260905111704 20 244 6.4 9.7 0.00 0.00 0.00 54 1021.5
20260905111204 20 237 3.2 14.5 0.00 0.00 0.00 55 1021.5
20260905110704 20 244 4.8 14.5 0.00 0.00 0.00 56 1021.5
20260905110204 20 243 3.2 14.5 0.00 0.00 0.00 56 1021.6
20260905105704 20 244 6.4 16.1 0.00 0.00 0.00 56 1021.5
20260905105223 20 259 3.2 16.1 0.00 0.00 0.00 57 1021.5
20260905104704 20 189 3.2 16.1 0.00 0.00 0.00 58 1021.4
20260905104204 20 235 8.0 14.5 0.00 0.00 0.00 57 1021.4
20260905103704 19 252 3.2 14.5 0.00 0.00 0.00 57 1021.4
20260905103204 19 241 3.2 16.1 0.00 0.00 0.00 59 1021.4
20260905102704 19 262 3.2 16.1 0.00 0.00 0.00 58 1021.3
20260905102205 19 241 3.2 16.1 0.00 0.00 0.00 60 1021.5
20260905101704 19 204 4.8 14.5 0.00 0.00 0.00 60 1021.3
20260905101204 18 255 3.2 14.5 0.00 0.00 0.00 62 1021.4
20260905100709 18 245 4.8 17.7 0.00 0.00 0.00 62 1021.3
20260905100204 18 237 3.2 17.7 0.00 0.00 0.00 62 1021.3
20260905095704 18 258 4.8 17.7 0.00 0.00 0.00 61 1021.2
20260905095203 18 223 8.0 11.3 0.00 0.00 0.00 63 1021.3
20260905094727 18 254 6.4 11.3 0.00 0.00 0.00 63 1021.2
20260905094204 18 293 4.8 14.5 0.00 0.00 0.00 64 1021.1
20260905093204 18 227 4.8 14.5 0.00 0.00 0.00 67 1021.1
20260905092704 18 251 6.4 17.7 0.00 0.00 0.00 66 1021.1
20260905091704 17 250 3.2 17.7 0.00 0.00 0.00 69 1021.0
20260905090709 17 276 6.4 14.5 0.00 0.00 0.00 69 1020.9
20260905090204 17 230 3.2 14.5 0.00 0.00 0.00 70 1020.8
20260905085705 17 240 6.4 14.5 0.00 0.00 0.00 71 1020.7
20260905084704 17 259 3.2 14.5 0.00 0.00 0.00 72 1020.8
20260905084205 17 238 3.2 14.5 0.00 0.00 0.00 73 1020.9
20260905083704 16 241 6.4 17.7 0.00 0.00 0.00 73 1020.8
20260905083204 16 245 3.2 17.7 0.00 0.00 0.00 74 1020.8
20260905082704 16 248 3.2 17.7 0.00 0.00 0.00 75 1020.7
20260905082204 16 230 6.4 14.5 0.00 0.05 0.00 75 1020.7
20260905081704 16 154 3.2 14.5 0.00 0.05 0.00 76 1020.6
20260905080204 15 238 6.4 14.5 0.00 0.05 0.00 77 1020.6
20260905075705 15 227 4.8 14.5 0.00 0.05 0.00 77 1020.4
20260905075204 15 252 4.8 14.5 0.00 0.05 0.00 78 1020.4
20260905073704 14 234 4.8 17.7 0.00 0.05 0.00 79 1020.3
20260905073204 14 230 1.6 17.7 0.00 0.05 0.00 79 1020.4
20260905072704 14 238 3.2 14.5 0.00 0.05 0.00 78 1020.2
20260905072204 13 243 1.6 17.7 0.00 0.05 0.00 78 1020.2
20260905071705 13 227 6.4 17.7 0.00 0.05 0.00 78 1020.1
20260905070704 13 245 6.4 8.0 0.00 0.05 0.00 77 1020.1
20260905070204 13 169 3.2 16.1 0.00 0.05 0.00 77 1020.0
20260905065204 13 226 1.6 16.1 0.00 0.05 0.00 76 1019.9
20260905064704 13 257 4.8 6.4 0.00 0.05 0.00 75 1019.9
20260905064241 13 224 1.6 6.4 0.00 0.05 0.00 75 1019.8
20260905063705 12 226 1.6 8.0 0.00 0.05 0.00 75 1019.7
20260905062705 12 219 3.2 8.0 0.00 0.05 0.00 75 1019.6
20260905062205 12 196 1.6 11.3 0.00 0.05 0.00 75 1019.5
20260905061204 12 234 1.6 11.3 0.00 0.05 0.00 75 1019.4
20260905060205 12 237 1.6 11.3 0.00 0.05 0.00 75 1019.3
20260905055704 12 192 1.6 11.3 0.00 0.05 0.00 75 1019.3
20260905055234 12 178 1.6 11.3 0.00 0.05 0.00 75 1019.2
20260905054704 12 243 3.2 8.0 0.00 0.05 0.00 75 1019.1
20260905054204 12 244 1.6 8.0 0.00 0.05 0.00 75 1019.0
20260905053704 12 241 0.0 6.4 0.00 0.05 0.00 76 1019.0
20260905053204 12 237 0.0 6.4 0.00 0.05 0.00 76 1019.0
20260905052705 12 237 1.6 6.4 0.00 0.05 0.00 76 1019.0
20260905052205 12 227 0.0 4.8 0.00 0.05 0.00 76 1018.9
20260905051704 12 227 1.6 6.4 0.00 0.05 0.00 76 1018.8
20260905051204 12 224 0.0 6.4 0.00 0.05 0.00 76 1018.8
20260905050704 12 226 1.6 6.4 0.00 0.05 0.00 76 1018.8
20260905050204 12 224 1.6 6.4 0.00 0.05 0.00 76 1018.6
20260905045703 12 220 1.6 6.4 0.00 0.05 0.00 76 1018.7
20260905044705 12 226 1.6 6.4 0.00 0.05 0.00 77 1018.5
20260905044204 12 195 1.6 6.4 0.00 0.05 0.00 77 1018.6
20260905043210 13 212 1.6 4.8 0.00 0.05 0.00 77 1018.6
20260905041704 13 230 1.6 6.4 0.00 0.05 0.00 77 1018.4
20260905041205 13 230 1.6 6.4 0.00 0.05 0.00 77 1018.5
20260905035705 13 231 0.0 11.3 0.00 0.05 0.00 77 1018.2
20260905035204 13 227 3.2 11.3 0.00 0.05 0.00 77 1018.1
20260905033704 13 235 1.6 14.5 0.00 0.05 0.00 77 1018.1
20260905032704 13 186 3.2 8.0 0.00 0.05 0.00 77 1017.9
20260905032204 13 243 3.2 8.0 0.00 0.05 0.00 77 1017.9
20260905031204 13 241 3.2 9.7 0.00 0.05 0.00 78 1017.9
20260905030704 13 233 3.2 9.7 0.00 0.05 0.00 78 1017.9
20260905025205 13 255 1.6 9.7 0.00 0.05 0.00 78 1017.7
20260905024704 13 227 1.6 9.7 0.00 0.05 0.00 78 1017.7
20260905023704 13 237 1.6 8.0 0.00 0.05 0.00 78 1017.6
20260905023204 13 235 1.6 8.0 0.00 0.05 0.00 78 1017.5
20260905022704 13 235 1.6 8.0 0.00 0.05 0.00 78 1017.6
20260905021704 13 185 3.2 8.0 0.00 0.05 0.00 78 1017.5
20260905021205 13 250 1.6 8.0 0.00 0.05 0.00 78 1017.4
20260905020704 13 250 1.6 9.7 0.00 0.05 0.00 78 1017.5
20260905015714 13 234 1.6 9.7 0.00 0.05 0.00 78 1017.4
20260905015203 13 238 3.2 8.0 0.00 0.05 0.00 78 1017.3
20260905014704 13 238 0.0 8.0 0.00 0.05 0.00 78 1017.3
20260905014204 13 238 3.2 8.0 0.00 0.05 0.00 78 1017.2
20260905013704 13 245 3.2 8.0 0.00 0.05 0.00 79 1017.2
20260905012704 13 244 3.2 8.0 0.00 0.05 0.00 79 1017.1
20260905011704 13 224 3.2 8.0 0.00 0.05 0.00 79 1017.2
20260905011204 13 233 4.8 8.0 0.00 0.05 0.00 79 1017.1
20260905010705 13 234 3.2 8.0 0.00 0.05 0.00 78 1017.2
20260905010205 13 221 1.6 8.0 0.00 0.05 0.00 78 1017.1
20260905005705 13 251 1.6 9.7 0.00 0.05 0.00 78 1017.1
20260905005204 14 247 3.2 9.7 0.00 0.05 0.00 78 1017.2
20260905004705 14 252 1.6 8.0 0.00 0.05 0.00 78 1017.1
20260905004204 14 183 1.6 9.7 0.00 0.05 0.00 78 1017.0
20260905003704 14 196 3.2 9.7 0.00 0.05 0.00 78 1017.1
20260905003204 14 238 1.6 6.4 0.00 0.05 0.00 78 1017.0
20260905002704 14 237 1.6 8.0 0.00 0.05 0.00 78 1017.0
20260905001705 14 235 1.6 8.0 0.00 0.05 0.00 78 1017.0
20260905001204 14 235 3.2 6.4 0.00 0.05 0.00 78 1017.0
20260905000704 14 227 3.2 8.0 0.00 0.05 0.00 78 1017.0
20260905000204 14 220 1.6 8.0 0.00 0.05 0.00 78 1016.9
20260904235704 14 217 1.6 6.4 0.00 0.05 0.00 78 1016.7
20260904235205 14 214 1.6 8.0 0.00 0.05 0.00 78 1016.9
20260904234706 14 199 3.2 8.0 0.00 0.05 0.00 78 1016.7
20260904234203 15 243 1.6 8.0 0.00 0.05 0.00 78 1016.7
20260904233204 15 250 3.2 8.0 0.00 0.05 0.00 77 1016.6
20260904232703 15 248 1.6 8.0 0.00 0.05 0.00 77 1016.7
20260904232204 15 248 1.6 8.0 0.00 0.05 0.00 77 1016.8
20260904231704 15 251 1.6 8.0 0.00 0.05 0.00 77 1016.6
20260904230704 15 238 1.6 8.0 0.00 0.05 0.00 77 1016.6
20260904230204 15 244 3.2 6.4 0.00 0.05 0.05 77 1016.5
20260904225704 15 243 1.6 14.5 0.00 0.05 0.05 77 1016.4
20260904225204 15 243 1.6 14.5 0.00 0.05 0.05 77 1016.4
20260904224704 15 240 1.6 14.5 0.00 0.05 0.05 77 1016.4
20260904224204 15 190 1.6 8.0 0.00 0.05 0.05 77 1016.4
20260904223704 15 189 1.6 8.0 0.00 0.05 0.05 77 1016.4
20260904223204 15 228 3.2 6.4 0.00 0.05 0.05 76 1016.3
20260904221704 15 221 1.6 4.8 0.00 0.05 0.05 76 1016.4
20260904221205 15 224 1.6 9.7 0.00 0.05 0.05 76 1016.3
20260904220704 15 234 1.6 9.7 0.00 0.05 0.05 76 1016.3
20260904220204 15 237 1.6 9.7 0.00 0.05 0.05 76 1016.2
20260904215204 16 186 1.6 8.0 0.00 0.05 0.05 75 1016.2
20260904214704 16 227 1.6 6.4 0.00 0.05 0.05 75 1016.2
20260904214204 16 228 3.2 6.4 0.00 0.05 0.05 75 1016.2
20260904213705 16 248 1.6 6.4 0.00 0.05 0.05 75 1016.1
20260904213207 16 220 0.0 9.7 0.00 0.05 0.05 74 1016.0
20260904212704 16 224 1.6 9.7 0.00 0.05 0.05 74 1016.0
20260904212203 16 244 1.6 9.7 0.00 0.05 0.05 74 1015.8
20260904211704 16 238 3.2 8.0 0.00 0.05 0.05 73 1015.8
20260904211204 16 238 3.2 8.0 0.00 0.05 0.05 73 1015.8
20260904210704 16 238 1.6 8.0 0.00 0.05 0.05 73 1015.7
20260904210204 16 244 3.2 4.8 0.00 0.05 0.05 72 1015.9
20260904205704 16 233 1.6 8.0 0.00 0.05 0.05 72 1015.9
20260904205204 17 233 3.2 9.7 0.00 0.05 0.05 72 1015.9
20260904204704 17 248 1.6 9.7 0.00 0.05 0.05 71 1015.9
20260904204230 17 237 3.2 9.7 0.00 0.05 0.05 71 1015.9
20260904203704 17 231 3.2 9.7 0.00 0.05 0.05 71 1015.7
20260904203204 17 240 3.2 14.5 0.00 0.05 0.05 70 1015.6
20260904202704 17 245 4.8 14.5 0.00 0.05 0.05 70 1015.6
20260904202204 17 241 3.2 14.5 0.00 0.05 0.05 70 1015.7
20260904201704 17 266 3.2 19.3 0.00 0.05 0.05 70 1015.7
20260904201205 17 241 4.8 19.3 0.00 0.05 0.05 69 1015.7
20260904200704 17 238 6.4 17.7 0.00 0.05 0.05 69 1015.6
20260904195705 17 245 6.4 20.9 0.00 0.05 0.05 68 1015.6
20260904195204 17 244 3.2 20.9 0.00 0.05 0.05 67 1015.5
20260904194709 17 238 4.8 14.5 0.00 0.05 0.05 67 1015.4
20260904193704 18 228 6.4 14.5 0.00 0.05 0.05 66 1015.3
20260904192703 18 234 3.2 14.5 0.00 0.05 0.05 64 1014.9
20260904192204 18 159 3.2 14.5 0.00 0.05 0.05 64 1014.8
20260904191704 18 247 6.4 16.1 0.00 0.05 0.05 63 1014.8
20260904191204 18 238 3.2 16.1 0.00 0.05 0.05 63 1014.8
20260904190204 18 210 6.4 16.1 0.00 0.05 0.05 62 1014.7
20260904185704 18 235 4.8 14.5 0.00 0.05 0.05 62 1014.5
20260904185205 18 243 4.8 14.5 0.00 0.05 0.05 62 1014.4
20260904184704 18 245 4.8 16.1 0.00 0.05 0.05 61 1014.3
20260904184204 18 244 6.4 16.1 0.00 0.05 0.05 61 1014.3
20260904183704 18 243 6.4 16.1 0.00 0.05 0.05 61 1014.2
20260904182704 18 252 4.8 20.9 0.00 0.05 0.05 61 1014.0
20260904181209 18 230 9.7 17.7 0.00 0.05 0.05 61 1013.9
20260904180704 18 255 6.4 16.1 0.00 0.05 0.05 62 1013.9
20260904180204 18 247 6.4 14.5 0.00 0.05 0.05 62 1013.8
20260904175704 18 240 4.8 14.5 0.00 0.05 0.05 62 1013.6
20260904175205 19 200 4.8 14.5 0.00 0.05 0.05 61 1013.7
20260904174727 19 173 3.2 16.1 0.00 0.05 0.05 61 1013.6
20260904174205 19 235 4.8 24.1 0.00 0.05 0.05 61 1013.6
20260904173708 19 243 4.8 24.1 0.00 0.05 0.05 60 1013.5
20260904173204 19 240 8.0 24.1 0.00 0.05 0.05 60 1013.4
20260904172704 19 241 8.0 17.7 0.00 0.05 0.05 60 1013.4
20260904172204 19 231 4.8 17.7 0.00 0.05 0.05 59 1013.3
20260904171704 19 237 3.2 14.5 0.00 0.05 0.05 58 1013.3
20260904171214 19 235 3.2 17.7 0.00 0.05 0.05 58 1013.3
20260904170704 19 255 6.4 17.7 0.00 0.05 0.05 57 1013.3
20260904170209 19 262 4.8 17.7 0.00 0.05 0.05 56 1013.2
20260904165204 19 254 6.4 20.9 0.00 0.05 0.05 55 1013.2
20260904164704 19 252 6.4 20.9 0.00 0.05 0.05 55 1013.2
20260904164204 19 265 6.4 20.9 0.00 0.05 0.05 55 1013.0
20260904163703 20 251 8.0 24.1 0.00 0.05 0.05 55 1012.9
20260904163204 20 195 8.0 24.1 0.00 0.05 0.05 56 1012.8
20260904162703 20 164 4.8 20.9 0.00 0.05 0.05 57 1012.9
20260904162205 20 255 9.7 22.5 0.00 0.05 0.05 58 1012.9
20260904161705 20 244 6.4 22.5 0.00 0.05 0.05 58 1012.7
20260904161204 20 224 8.0 19.3 0.00 0.05 0.05 58 1012.7
20260904160704 20 254 6.4 19.3 0.00 0.05 0.05 57 1012.6
20260904155205 20 99 3.2 20.9 0.00 0.05 0.05 57 1012.3
20260904154203 20 182 9.7 20.9 0.00 0.05 0.05 56 1012.5
20260904153704 20 241 6.4 22.5 0.00 0.05 0.05 57 1012.6
20260904153204 20 235 6.4 22.5 0.00 0.05 0.05 56 1012.6
20260904151705 20 268 8.0 22.5 0.00 0.05 0.05 57 1012.4
20260904151204 20 248 9.7 20.9 0.00 0.05 0.05 57 1012.4
20260904150704 20 237 6.4 22.5 0.00 0.05 0.05 57 1012.4
20260904150204 20 224 8.0 22.5 0.00 0.05 0.05 57 1012.6
20260904145704 20 265 4.8 19.3 0.00 0.05 0.05 57 1012.3